contact:dominique.lefevre@mio.osupytheas.fr, maurice.libes@osupytheas.fr, didier.mallarino@osupytheas.fr
Project:EMSO http://www.emso-fr.org/EMSO-France
Depth: 2436.0 m
Title:EMSO Ligure Ouest : Data MII capteur MICROCAT
DateTime_Computer,Latitude,Longitude,Temperature,Conductivity,Pressure,DateTime_Instrument
DateTime_Computer,Latitude,Longitude,degC,S m-1,dbar,DateTime_Instrument
2023-03-02T00:00:22Z,42.805,6.029,13.3019,4.60074,2470.624,2023-3-02T02:02:54Z
2023-03-02T00:03:25Z,42.805,6.029,13.3019,4.60072,2470.6,2023-3-02T02:05:58Z
2023-03-02T00:06:29Z,42.805,6.029,13.3014,4.60072,2470.6,2023-3-02T02:09:01Z
2023-03-02T00:09:32Z,42.805,6.029,13.3018,4.60070,2470.6,2023-3-02T02:12:04Z
2023-03-02T00:12:35Z,42.805,6.029,13.3017,4.60073,2470.624,2023-3-02T02:15:07Z
2023-03-02T00:15:38Z,42.805,6.029,13.3021,4.60072,2470.614,2023-3-02T02:18:10Z
2023-03-02T00:18:41Z,42.805,6.029,13.3019,4.60072,2470.646,2023-3-02T02:21:13Z
2023-03-02T00:21:44Z,42.805,6.029,13.3019,4.60072,2470.624,2023-3-02T02:24:16Z
2023-03-02T00:24:47Z,42.805,6.029,13.3015,4.60073,2470.646,2023-3-02T02:27:19Z
2023-03-02T00:27:50Z,42.805,6.029,13.3017,4.60072,2470.624,2023-3-02T02:30:22Z
2023-03-02T00:30:53Z,42.805,6.029,13.3015,4.60074,2470.624,2023-3-02T02:33:25Z
2023-03-02T00:33:56Z,42.805,6.029,13.3015,4.60072,2470.6,2023-3-02T02:36:28Z
2023-03-02T00:36:59Z,42.805,6.029,13.3016,4.60071,2470.661,2023-3-02T02:39:31Z
2023-03-02T00:40:02Z,42.805,6.029,13.3017,4.60072,2470.661,2023-3-02T02:42:34Z
2023-03-02T00:43:05Z,42.805,6.029,13.3014,4.60073,2470.614,2023-3-02T02:45:38Z
2023-03-02T00:46:09Z,42.805,6.029,13.3015,4.60075,2470.637,2023-3-02T02:48:41Z
2023-03-02T00:49:12Z,42.805,6.029,13.3016,4.60070,2470.646,2023-3-02T02:51:44Z
2023-03-02T00:52:15Z,42.805,6.029,13.3015,4.60072,2470.646,2023-3-02T02:54:47Z
2023-03-02T00:55:18Z,42.805,6.029,13.3020,4.60074,2470.637,2023-3-02T02:57:50Z
2023-03-02T00:58:21Z,42.805,6.029,13.3018,4.60072,2470.661,2023-3-02T03:00:53Z
2023-03-02T01:01:24Z,42.805,6.029,13.3015,4.60078,2470.646,2023-3-02T03:03:56Z
2023-03-02T01:04:27Z,42.805,6.029,13.3019,4.60072,2470.646,2023-3-02T03:06:59Z
2023-03-02T01:07:30Z,42.805,6.029,13.3015,4.60071,2470.646,2023-3-02T03:10:02Z
2023-03-02T01:10:33Z,42.805,6.029,13.3016,4.60071,2470.624,2023-3-02T03:13:05Z
2023-03-02T01:13:36Z,42.805,6.029,13.3017,4.60074,2470.67,2023-3-02T03:16:08Z
2023-03-02T01:16:39Z,42.805,6.029,13.3019,4.60072,2470.624,2023-3-02T03:19:11Z
2023-03-02T01:19:42Z,42.805,6.029,13.3019,4.60075,2470.661,2023-3-02T03:22:14Z
2023-03-02T01:22:45Z,42.805,6.029,13.3016,4.60072,2470.646,2023-3-02T03:25:17Z
2023-03-02T01:25:48Z,42.805,6.029,13.3019,4.60073,2470.67,2023-3-02T03:28:21Z
2023-03-02T01:28:52Z,42.805,6.029,13.3015,4.60071,2470.67,2023-3-02T03:31:24Z
2023-03-02T01:31:55Z,42.805,6.029,13.3022,4.60071,2470.646,2023-3-02T03:34:27Z
2023-03-02T01:34:58Z,42.805,6.029,13.3015,4.60077,2470.624,2023-3-02T03:37:30Z
2023-03-02T01:38:01Z,42.805,6.029,13.3016,4.60072,2470.67,2023-3-02T03:40:33Z
2023-03-02T01:41:04Z,42.805,6.029,13.3018,4.60076,2470.67,2023-3-02T03:43:36Z
2023-03-02T01:44:07Z,42.805,6.029,13.3016,4.60073,2470.661,2023-3-02T03:46:39Z
2023-03-02T01:47:10Z,42.805,6.029,13.3017,4.60072,2470.646,2023-3-02T03:49:42Z
2023-03-02T01:50:13Z,42.805,6.029,13.3017,4.60073,2470.646,2023-3-02T03:52:45Z
2023-03-02T01:53:16Z,42.805,6.029,13.3014,4.60072,2470.646,2023-3-02T03:55:48Z
2023-03-02T01:56:19Z,42.805,6.029,13.3019,4.60072,2470.646,2023-3-02T03:58:51Z
2023-03-02T01:59:22Z,42.805,6.029,13.3019,4.60072,2470.674,2023-3-02T04:01:54Z
2023-03-02T02:02:25Z,42.805,6.029,13.3014,4.60072,2470.67,2023-3-02T04:04:57Z
2023-03-02T02:05:28Z,42.805,6.029,13.3017,4.60072,2470.693,2023-3-02T04:08:01Z
2023-03-02T02:08:31Z,42.805,6.029,13.3016,4.60072,2470.67,2023-3-02T04:11:04Z
2023-03-02T02:11:35Z,42.805,6.029,13.3015,4.60072,2470.67,2023-3-02T04:14:07Z
2023-03-02T02:14:38Z,42.805,6.029,13.3019,4.60072,2470.646,2023-3-02T04:17:10Z
2023-03-02T02:17:41Z,42.805,6.029,13.3016,4.60074,2470.67,2023-3-02T04:20:13Z
2023-03-02T02:20:44Z,42.805,6.029,13.3016,4.60073,2470.684,2023-3-02T04:23:16Z
2023-03-02T02:23:47Z,42.805,6.029,13.3017,4.60074,2470.646,2023-3-02T04:26:19Z
2023-03-02T02:26:50Z,42.805,6.029,13.3021,4.60072,2470.661,2023-3-02T04:29:22Z
2023-03-02T02:29:53Z,42.805,6.029,13.3018,4.60071,2470.693,2023-3-02T04:32:25Z
2023-03-02T02:32:56Z,42.805,6.029,13.3017,4.60073,2470.693,2023-3-02T04:35:28Z
2023-03-02T02:35:59Z,42.805,6.029,13.3018,4.60072,2470.693,2023-3-02T04:38:31Z
2023-03-02T02:39:02Z,42.805,6.029,13.3018,4.60073,2470.67,2023-3-02T04:41:34Z
2023-03-02T02:42:05Z,42.805,6.029,13.3017,4.60072,2470.67,2023-3-02T04:44:37Z
2023-03-02T02:45:08Z,42.805,6.029,13.3014,4.60072,2470.693,2023-3-02T04:47:41Z
2023-03-02T02:48:11Z,42.805,6.029,13.3016,4.60072,2470.661,2023-3-02T04:50:44Z
2023-03-02T02:51:15Z,42.805,6.029,13.3017,4.60072,2470.717,2023-3-02T04:53:47Z
2023-03-02T02:54:18Z,42.805,6.029,13.3014,4.60072,2470.646,2023-3-02T04:56:50Z
2023-03-02T02:57:21Z,42.805,6.029,13.3017,4.60072,2470.684,2023-3-02T04:59:53Z
2023-03-02T03:00:24Z,42.805,6.029,13.3016,4.60072,2470.707,2023-3-02T05:02:56Z
2023-03-02T03:03:27Z,42.805,6.029,13.3018,4.60072,2470.693,2023-3-02T05:05:59Z
2023-03-02T03:06:30Z,42.805,6.029,13.3019,4.60072,2470.684,2023-3-02T05:09:02Z
2023-03-02T03:09:33Z,42.805,6.029,13.3017,4.60072,2470.67,2023-3-02T05:12:05Z
2023-03-02T03:12:36Z,42.805,6.029,13.3018,4.60072,2470.707,2023-3-02T05:15:08Z
2023-03-02T03:15:39Z,42.805,6.029,13.3021,4.60072,2470.693,2023-3-02T05:18:11Z
2023-03-02T03:18:42Z,42.805,6.029,13.3019,4.60072,2470.684,2023-3-02T05:21:14Z
2023-03-02T03:21:45Z,42.805,6.029,13.3014,4.60072,2470.646,2023-3-02T05:24:17Z
2023-03-02T03:24:48Z,42.805,6.029,13.3020,4.60072,2470.656,2023-3-02T05:27:20Z
2023-03-02T03:27:51Z,42.805,6.029,13.3014,4.60072,2470.717,2023-3-02T05:30:24Z
2023-03-02T03:30:54Z,42.805,6.029,13.3014,4.60072,2470.693,2023-3-02T05:33:27Z
2023-03-02T03:33:58Z,42.805,6.029,13.3018,4.60072,2470.717,2023-3-02T05:36:30Z
2023-03-02T03:37:01Z,42.805,6.029,13.3018,4.60072,2470.717,2023-3-02T05:39:33Z
2023-03-02T03:40:04Z,42.805,6.029,13.3015,4.60072,2470.73,2023-3-02T05:42:36Z
2023-03-02T03:43:07Z,42.805,6.029,13.3015,4.60072,2470.707,2023-3-02T05:45:39Z
2023-03-02T03:46:10Z,42.805,6.029,13.3017,4.60074,2470.717,2023-3-02T05:48:42Z
2023-03-02T03:49:13Z,42.805,6.029,13.3015,4.60072,2470.73,2023-3-02T05:51:45Z
2023-03-02T03:52:16Z,42.805,6.029,13.3019,4.60073,2470.693,2023-3-02T05:54:48Z
2023-03-02T03:55:19Z,42.805,6.029,13.3020,4.60078,2470.693,2023-3-02T05:57:51Z
2023-03-02T03:58:22Z,42.805,6.029,13.3019,4.60073,2470.707,2023-3-02T06:00:54Z
2023-03-02T04:01:25Z,42.805,6.029,13.3017,4.60076,2470.693,2023-3-02T06:03:57Z
2023-03-02T04:04:28Z,42.805,6.029,13.3017,4.60073,2470.717,2023-3-02T06:07:00Z
2023-03-02T04:07:31Z,42.805,6.029,13.3021,4.60074,2470.74,2023-3-02T06:10:04Z
2023-03-02T04:10:34Z,42.805,6.029,13.3020,4.60072,2470.717,2023-3-02T06:13:07Z
2023-03-02T04:13:38Z,42.805,6.029,13.3018,4.60073,2470.717,2023-3-02T06:16:10Z
2023-03-02T04:16:41Z,42.805,6.029,13.3019,4.60073,2470.754,2023-3-02T06:19:13Z
2023-03-02T04:19:44Z,42.805,6.029,13.3019,4.60072,2470.717,2023-3-02T06:22:16Z
2023-03-02T04:22:47Z,42.805,6.029,13.3019,4.60073,2470.73,2023-3-02T06:25:19Z
2023-03-02T04:25:50Z,42.805,6.029,13.3020,4.60073,2470.73,2023-3-02T06:28:22Z
2023-03-02T04:28:53Z,42.805,6.029,13.3019,4.60073,2470.693,2023-3-02T06:31:25Z
2023-03-02T04:31:56Z,42.805,6.029,13.3017,4.60075,2470.717,2023-3-02T06:34:28Z
2023-03-02T04:34:59Z,42.805,6.029,13.3019,4.60073,2470.74,2023-3-02T06:37:31Z
2023-03-02T04:38:02Z,42.805,6.029,13.3019,4.60073,2470.73,2023-3-02T06:40:34Z
2023-03-02T04:41:05Z,42.805,6.029,13.3016,4.60073,2470.763,2023-3-02T06:43:37Z
2023-03-02T04:44:08Z,42.805,6.029,13.3016,4.60073,2470.717,2023-3-02T06:46:40Z
2023-03-02T04:47:11Z,42.805,6.029,13.3018,4.60073,2470.693,2023-3-02T06:49:44Z
2023-03-02T04:50:14Z,42.805,6.029,13.3020,4.60074,2470.707,2023-3-02T06:52:47Z
2023-03-02T04:53:17Z,42.805,6.029,13.3015,4.60074,2470.717,2023-3-02T06:55:50Z
2023-03-02T04:56:21Z,42.805,6.029,13.3018,4.60074,2470.717,2023-3-02T06:58:53Z
2023-03-02T04:59:24Z,42.805,6.029,13.3020,4.60074,2470.73,2023-3-02T07:01:56Z
2023-03-02T05:02:27Z,42.805,6.029,13.3018,4.60074,2470.717,2023-3-02T07:04:59Z
2023-03-02T05:05:30Z,42.805,6.029,13.3016,4.60076,2470.717,2023-3-02T07:08:02Z
2023-03-02T05:08:33Z,42.805,6.029,13.3022,4.60078,2470.717,2023-3-02T07:11:05Z
2023-03-02T05:11:36Z,42.805,6.029,13.3017,4.60074,2470.717,2023-3-02T07:14:08Z
2023-03-02T05:14:39Z,42.805,6.029,13.3019,4.60074,2470.73,2023-3-02T07:17:11Z
2023-03-02T05:17:42Z,42.805,6.029,13.3021,4.60074,2470.74,2023-3-02T07:20:14Z
2023-03-02T05:20:45Z,42.805,6.029,13.3015,4.60074,2470.707,2023-3-02T07:23:17Z
2023-03-02T05:23:48Z,42.805,6.029,13.3019,4.60075,2470.717,2023-3-02T07:26:20Z
2023-03-02T05:26:51Z,42.805,6.029,13.3022,4.60076,2470.717,2023-3-02T07:29:24Z
2023-03-02T05:29:54Z,42.805,6.029,13.3020,4.60074,2470.74,2023-3-02T07:32:27Z
2023-03-02T05:32:57Z,42.805,6.029,13.3021,4.60075,2470.717,2023-3-02T07:35:30Z
2023-03-02T05:36:01Z,42.805,6.029,13.3016,4.60076,2470.717,2023-3-02T07:38:33Z
2023-03-02T05:39:04Z,42.805,6.029,13.3021,4.60076,2470.73,2023-3-02T07:41:36Z
2023-03-02T05:42:07Z,42.805,6.029,13.3024,4.60078,2470.717,2023-3-02T07:44:39Z
2023-03-02T05:45:10Z,42.805,6.029,13.3025,4.60077,2470.707,2023-3-02T07:47:42Z
2023-03-02T05:48:13Z,42.805,6.029,13.3021,4.60077,2470.717,2023-3-02T07:50:45Z
2023-03-02T05:51:16Z,42.805,6.029,13.3022,4.60077,2470.684,2023-3-02T07:53:48Z
2023-03-02T05:54:19Z,42.805,6.029,13.3023,4.60078,2470.717,2023-3-02T07:56:51Z
2023-03-02T05:57:22Z,42.805,6.029,13.3023,4.60078,2470.754,2023-3-02T07:59:54Z
2023-03-02T06:00:25Z,42.805,6.029,13.3019,4.60080,2470.74,2023-3-02T08:02:57Z
2023-03-02T06:03:28Z,42.805,6.029,13.3027,4.60079,2470.73,2023-3-02T08:06:00Z
2023-03-02T06:06:31Z,42.805,6.029,13.3022,4.60078,2470.73,2023-3-02T08:09:04Z
2023-03-02T06:09:34Z,42.805,6.029,13.3021,4.60079,2470.73,2023-3-02T08:12:07Z
2023-03-02T06:12:37Z,42.805,6.029,13.3023,4.60078,2470.717,2023-3-02T08:15:10Z
2023-03-02T06:15:40Z,42.805,6.029,13.3023,4.60079,2470.693,2023-3-02T08:18:13Z
2023-03-02T06:18:44Z,42.805,6.029,13.3019,4.60078,2470.693,2023-3-02T08:21:16Z
2023-03-02T06:21:47Z,42.805,6.029,13.3021,4.60078,2470.717,2023-3-02T08:24:19Z
2023-03-02T06:24:50Z,42.805,6.029,13.3024,4.60079,2470.67,2023-3-02T08:27:22Z
2023-03-02T06:27:53Z,42.805,6.029,13.3023,4.60079,2470.717,2023-3-02T08:30:25Z
2023-03-02T06:30:56Z,42.805,6.029,13.3021,4.60080,2470.73,2023-3-02T08:33:28Z
2023-03-02T06:33:59Z,42.805,6.029,13.3023,4.60078,2470.73,2023-3-02T08:36:31Z
2023-03-02T06:37:02Z,42.805,6.029,13.3023,4.60079,2470.717,2023-3-02T08:39:34Z
2023-03-02T06:40:05Z,42.805,6.029,13.3026,4.60079,2470.693,2023-3-02T08:42:37Z
2023-03-02T06:43:08Z,42.805,6.029,13.3026,4.60079,2470.693,2023-3-02T08:45:40Z
2023-03-02T06:46:11Z,42.805,6.029,13.3023,4.60079,2470.707,2023-3-02T08:48:43Z
2023-03-02T06:49:14Z,42.805,6.029,13.3025,4.60079,2470.684,2023-3-02T08:51:47Z
2023-03-02T06:52:17Z,42.805,6.029,13.3024,4.60079,2470.693,2023-3-02T08:54:50Z
2023-03-02T06:55:20Z,42.805,6.029,13.3025,4.60081,2470.73,2023-3-02T08:57:53Z
2023-03-02T06:58:24Z,42.805,6.029,13.3025,4.60081,2470.717,2023-3-02T09:00:56Z
2023-03-02T07:01:27Z,42.805,6.029,13.3027,4.60081,2470.717,2023-3-02T09:03:59Z
2023-03-02T07:04:30Z,42.805,6.029,13.3027,4.60081,2470.73,2023-3-02T09:07:02Z
2023-03-02T07:07:33Z,42.805,6.029,13.3026,4.60081,2470.707,2023-3-02T09:10:05Z
2023-03-02T07:10:36Z,42.805,6.029,13.3026,4.60081,2470.73,2023-3-02T09:13:08Z
2023-03-02T07:13:39Z,42.805,6.029,13.3027,4.60081,2470.703,2023-3-02T09:16:11Z
2023-03-02T07:16:42Z,42.805,6.029,13.3028,4.60081,2470.717,2023-3-02T09:19:14Z
2023-03-02T07:19:45Z,42.805,6.029,13.3026,4.60081,2470.684,2023-3-02T09:22:17Z
2023-03-02T07:22:48Z,42.805,6.029,13.3026,4.60082,2470.693,2023-3-02T09:25:20Z
2023-03-02T07:25:51Z,42.805,6.029,13.3023,4.60083,2470.73,2023-3-02T09:28:23Z
2023-03-02T07:28:54Z,42.805,6.029,13.3024,4.60082,2470.684,2023-3-02T09:31:27Z
2023-03-02T07:31:57Z,42.805,6.029,13.3027,4.60084,2470.74,2023-3-02T09:34:30Z
2023-03-02T07:35:00Z,42.805,6.029,13.3026,4.60082,2470.693,2023-3-02T09:37:33Z
2023-03-02T07:38:03Z,42.805,6.029,13.3027,4.60082,2470.693,2023-3-02T09:40:36Z
2023-03-02T07:41:07Z,42.805,6.029,13.3032,4.60084,2470.707,2023-3-02T09:43:39Z
2023-03-02T07:44:10Z,42.805,6.029,13.3028,4.60084,2470.693,2023-3-02T09:46:42Z
2023-03-02T07:47:13Z,42.805,6.029,13.3027,4.60084,2470.67,2023-3-02T09:49:45Z
2023-03-02T07:50:16Z,42.805,6.029,13.3028,4.60087,2470.693,2023-3-02T09:52:48Z
2023-03-02T07:53:19Z,42.805,6.029,13.3025,4.60087,2470.67,2023-3-02T09:55:51Z
2023-03-02T07:56:22Z,42.805,6.029,13.3029,4.60087,2470.693,2023-3-02T09:58:54Z
2023-03-02T07:59:25Z,42.805,6.029,13.3029,4.60086,2470.717,2023-3-02T10:01:57Z
2023-03-02T08:02:28Z,42.805,6.029,13.3028,4.60087,2470.707,2023-3-02T10:05:00Z
2023-03-02T08:05:31Z,42.805,6.029,13.3027,4.60087,2470.67,2023-3-02T10:08:03Z
2023-03-02T08:08:34Z,42.805,6.029,13.3031,4.60086,2470.717,2023-3-02T10:11:07Z
2023-03-02T08:11:37Z,42.805,6.029,13.3029,4.60087,2470.717,2023-3-02T10:14:10Z
2023-03-02T08:14:40Z,42.805,6.029,13.3029,4.60087,2470.693,2023-3-02T10:17:13Z
2023-03-02T08:17:43Z,42.805,6.029,13.3030,4.60087,2470.693,2023-3-02T10:20:16Z
2023-03-02T08:20:47Z,42.805,6.029,13.3030,4.60090,2470.707,2023-3-02T10:23:19Z
2023-03-02T08:23:50Z,42.805,6.029,13.3029,4.60087,2470.707,2023-3-02T10:26:22Z
2023-03-02T08:26:53Z,42.805,6.029,13.3031,4.60087,2470.693,2023-3-02T10:29:25Z
2023-03-02T08:29:56Z,42.805,6.029,13.3032,4.60086,2470.67,2023-3-02T10:32:28Z
2023-03-02T08:32:59Z,42.805,6.029,13.3031,4.60089,2470.707,2023-3-02T10:35:31Z
2023-03-02T08:36:02Z,42.805,6.029,13.3029,4.60088,2470.684,2023-3-02T10:38:34Z
2023-03-02T08:39:05Z,42.805,6.029,13.3031,4.60089,2470.707,2023-3-02T10:41:37Z
2023-03-02T08:42:08Z,42.805,6.029,13.3030,4.60088,2470.684,2023-3-02T10:44:40Z
2023-03-02T08:45:11Z,42.805,6.029,13.3036,4.60088,2470.707,2023-3-02T10:47:44Z
2023-03-02T08:48:14Z,42.805,6.029,13.3031,4.60089,2470.67,2023-3-02T10:50:47Z
2023-03-02T08:51:17Z,42.805,6.029,13.3034,4.60089,2470.67,2023-3-02T10:53:50Z
2023-03-02T08:54:20Z,42.805,6.029,13.3031,4.60090,2470.646,2023-3-02T10:56:53Z
2023-03-02T08:57:24Z,42.805,6.029,13.3034,4.60091,2470.707,2023-3-02T10:59:56Z
2023-03-02T09:00:27Z,42.805,6.029,13.3034,4.60092,2470.707,2023-3-02T11:02:59Z
2023-03-02T09:03:30Z,42.805,6.029,13.3032,4.60092,2470.67,2023-3-02T11:06:02Z
2023-03-02T09:06:33Z,42.805,6.029,13.3031,4.60092,2470.693,2023-3-02T11:09:05Z
2023-03-02T09:09:36Z,42.805,6.029,13.3035,4.60091,2470.661,2023-3-02T11:12:08Z
2023-03-02T09:12:39Z,42.805,6.029,13.3034,4.60092,2470.67,2023-3-02T11:15:11Z
2023-03-02T09:15:42Z,42.805,6.029,13.3031,4.60090,2470.67,2023-3-02T11:18:14Z
2023-03-02T09:18:45Z,42.805,6.029,13.3035,4.60090,2470.656,2023-3-02T11:21:17Z
2023-03-02T09:21:48Z,42.805,6.029,13.3032,4.60090,2470.661,2023-3-02T11:24:20Z
2023-03-02T09:24:51Z,42.805,6.029,13.3035,4.60091,2470.67,2023-3-02T11:27:24Z
2023-03-02T09:27:54Z,42.805,6.029,13.3030,4.60096,2470.693,2023-3-02T11:30:27Z
2023-03-02T09:30:57Z,42.805,6.029,13.3033,4.60094,2470.661,2023-3-02T11:33:30Z
2023-03-02T09:34:01Z,42.805,6.029,13.3038,4.60092,2470.707,2023-3-02T11:36:33Z
2023-03-02T09:37:04Z,42.805,6.029,13.3034,4.60092,2470.67,2023-3-02T11:39:36Z
2023-03-02T09:40:07Z,42.805,6.029,13.3034,4.60096,2470.684,2023-3-02T11:42:39Z
2023-03-02T09:43:10Z,42.805,6.029,13.3036,4.60095,2470.67,2023-3-02T11:45:42Z
2023-03-02T09:46:13Z,42.805,6.029,13.3031,4.60099,2470.646,2023-3-02T11:48:45Z
2023-03-02T09:49:16Z,42.805,6.029,13.3034,4.60093,2470.646,2023-3-02T11:51:48Z
2023-03-02T09:52:19Z,42.805,6.029,13.3034,4.60092,2470.684,2023-3-02T11:54:51Z
2023-03-02T09:55:22Z,42.805,6.029,13.3038,4.60093,2470.684,2023-3-02T11:57:54Z
2023-03-02T09:58:25Z,42.805,6.029,13.3032,4.60092,2470.646,2023-3-02T12:00:57Z
2023-03-02T10:01:28Z,42.805,6.029,13.3036,4.60094,2470.684,2023-3-02T12:04:01Z
2023-03-02T10:04:31Z,42.805,6.029,13.3034,4.60092,2470.646,2023-3-02T12:07:04Z
2023-03-02T10:07:34Z,42.805,6.029,13.3031,4.60092,2470.684,2023-3-02T12:10:07Z
2023-03-02T10:10:37Z,42.805,6.029,13.3034,4.60092,2470.661,2023-3-02T12:13:10Z
2023-03-02T10:13:41Z,42.805,6.029,13.3031,4.60092,2470.624,2023-3-02T12:16:13Z
2023-03-02T10:16:44Z,42.805,6.029,13.3035,4.60092,2470.646,2023-3-02T12:19:16Z
2023-03-02T10:19:47Z,42.805,6.029,13.3035,4.60092,2470.67,2023-3-02T12:22:19Z
2023-03-02T10:22:50Z,42.805,6.029,13.3036,4.60092,2470.661,2023-3-02T12:25:22Z
2023-03-02T10:25:53Z,42.805,6.029,13.3035,4.60093,2470.661,2023-3-02T12:28:25Z
2023-03-02T10:28:56Z,42.805,6.029,13.3036,4.60092,2470.661,2023-3-02T12:31:28Z
2023-03-02T10:31:59Z,42.805,6.029,13.3038,4.60092,2470.646,2023-3-02T12:34:31Z
2023-03-02T10:35:02Z,42.805,6.029,13.3034,4.60094,2470.646,2023-3-02T12:37:34Z
2023-03-02T10:38:05Z,42.805,6.029,13.3033,4.60094,2470.624,2023-3-02T12:40:37Z
2023-03-02T10:41:08Z,42.805,6.029,13.3034,4.60097,2470.624,2023-3-02T12:43:41Z
2023-03-02T10:44:11Z,42.805,6.029,13.3034,4.60092,2470.624,2023-3-02T12:46:44Z
2023-03-02T10:47:14Z,42.805,6.029,13.3035,4.60092,2470.637,2023-3-02T12:49:47Z
2023-03-02T10:50:18Z,42.805,6.029,13.3036,4.60092,2470.646,2023-3-02T12:52:50Z
2023-03-02T10:53:21Z,42.805,6.029,13.3030,4.60093,2470.684,2023-3-02T12:55:53Z
2023-03-02T10:56:24Z,42.805,6.029,13.3035,4.60092,2470.624,2023-3-02T12:58:56Z
2023-03-02T10:59:27Z,42.805,6.029,13.3037,4.60093,2470.646,2023-3-02T13:01:59Z
2023-03-02T11:02:30Z,42.805,6.029,13.3038,4.60095,2470.646,2023-3-02T13:05:02Z
2023-03-02T11:05:33Z,42.805,6.029,13.3036,4.60094,2470.646,2023-3-02T13:08:05Z
2023-03-02T11:08:36Z,42.805,6.029,13.3039,4.60094,2470.646,2023-3-02T13:11:08Z
2023-03-02T11:11:39Z,42.805,6.029,13.3036,4.60094,2470.646,2023-3-02T13:14:11Z
2023-03-02T11:14:42Z,42.805,6.029,13.3036,4.60094,2470.637,2023-3-02T13:17:15Z
2023-03-02T11:17:45Z,42.805,6.029,13.3039,4.60095,2470.646,2023-3-02T13:20:18Z
2023-03-02T11:20:48Z,42.805,6.029,13.3038,4.60094,2470.624,2023-3-02T13:23:21Z
2023-03-02T11:23:51Z,42.805,6.029,13.3039,4.60094,2470.661,2023-3-02T13:26:24Z
2023-03-02T11:26:54Z,42.805,6.029,13.3036,4.60095,2470.661,2023-3-02T13:29:27Z
2023-03-02T11:29:58Z,42.805,6.029,13.3039,4.60096,2470.67,2023-3-02T13:32:30Z
2023-03-02T11:33:01Z,42.805,6.029,13.3039,4.60097,2470.624,2023-3-02T13:35:33Z
2023-03-02T11:36:04Z,42.805,6.029,13.3036,4.60094,2470.624,2023-3-02T13:38:36Z
2023-03-02T11:39:07Z,42.805,6.029,13.3035,4.60096,2470.646,2023-3-02T13:41:39Z
2023-03-02T11:42:10Z,42.805,6.029,13.3034,4.60094,2470.624,2023-3-02T13:44:42Z
2023-03-02T11:45:13Z,42.805,6.029,13.3036,4.60095,2470.646,2023-3-02T13:47:45Z
2023-03-02T11:48:16Z,42.805,6.029,13.3034,4.60099,2470.646,2023-3-02T13:50:48Z
2023-03-02T11:51:19Z,42.805,6.029,13.3036,4.60094,2470.624,2023-3-02T13:53:51Z
2023-03-02T11:54:22Z,42.805,6.029,13.3036,4.60095,2470.646,2023-3-02T13:56:55Z
2023-03-02T11:57:25Z,42.805,6.029,13.3036,4.60095,2470.661,2023-3-02T13:59:58Z
2023-03-02T12:00:28Z,42.805,6.029,13.3039,4.60096,2470.624,2023-3-02T14:03:01Z
2023-03-02T12:03:31Z,42.805,6.029,13.3037,4.60095,2470.624,2023-3-02T14:06:04Z
2023-03-02T12:06:35Z,42.805,6.029,13.3036,4.60094,2470.624,2023-3-02T14:09:07Z
2023-03-02T12:09:38Z,42.805,6.029,13.3034,4.60094,2470.661,2023-3-02T14:12:10Z
2023-03-02T12:12:41Z,42.805,6.029,13.3036,4.60097,2470.661,2023-3-02T14:15:13Z
2023-03-02T12:15:44Z,42.805,6.029,13.3033,4.60095,2470.637,2023-3-02T14:18:16Z
2023-03-02T12:18:47Z,42.805,6.029,13.3039,4.60096,2470.637,2023-3-02T14:21:19Z
2023-03-02T12:21:50Z,42.805,6.029,13.3034,4.60097,2470.6,2023-3-02T14:24:22Z
2023-03-02T12:24:53Z,42.805,6.029,13.3036,4.60096,2470.614,2023-3-02T14:27:25Z
2023-03-02T12:27:56Z,42.805,6.029,13.3041,4.60096,2470.646,2023-3-02T14:30:28Z
2023-03-02T12:30:59Z,42.805,6.029,13.3036,4.60096,2470.646,2023-3-02T14:33:32Z
2023-03-02T12:34:02Z,42.805,6.029,13.3041,4.60096,2470.646,2023-3-02T14:36:35Z
2023-03-02T12:37:05Z,42.805,6.029,13.3038,4.60096,2470.646,2023-3-02T14:39:38Z
2023-03-02T12:40:08Z,42.805,6.029,13.3041,4.60097,2470.646,2023-3-02T14:42:41Z
2023-03-02T12:43:11Z,42.805,6.029,13.3036,4.60097,2470.646,2023-3-02T14:45:44Z
2023-03-02T12:46:15Z,42.805,6.029,13.3037,4.60097,2470.646,2023-3-02T14:48:47Z
2023-03-02T12:49:18Z,42.805,6.029,13.3039,4.60097,2470.624,2023-3-02T14:51:50Z
2023-03-02T12:52:21Z,42.805,6.029,13.3039,4.60097,2470.646,2023-3-02T14:54:53Z
2023-03-02T12:55:24Z,42.805,6.029,13.3039,4.60097,2470.646,2023-3-02T14:57:56Z
2023-03-02T12:58:27Z,42.805,6.029,13.3039,4.60097,2470.624,2023-3-02T15:00:59Z
2023-03-02T13:01:30Z,42.805,6.029,13.3039,4.60099,2470.637,2023-3-02T15:04:02Z
2023-03-02T13:04:33Z,42.805,6.029,13.3039,4.60098,2470.6,2023-3-02T15:07:05Z
2023-03-02T13:07:36Z,42.805,6.029,13.3040,4.60099,2470.624,2023-3-02T15:10:09Z
2023-03-02T13:10:39Z,42.805,6.029,13.3043,4.60103,2470.624,2023-3-02T15:13:12Z
2023-03-02T13:13:42Z,42.805,6.029,13.3041,4.60102,2470.661,2023-3-02T15:16:15Z
2023-03-02T13:16:45Z,42.805,6.029,13.3046,4.60103,2470.637,2023-3-02T15:19:18Z
2023-03-02T13:19:48Z,42.805,6.029,13.3044,4.60107,2470.624,2023-3-02T15:22:21Z
2023-03-02T13:22:52Z,42.805,6.029,13.3046,4.60105,2470.646,2023-3-02T15:25:24Z
2023-03-02T13:25:55Z,42.805,6.029,13.3046,4.60107,2470.661,2023-3-02T15:28:27Z
2023-03-02T13:28:58Z,42.805,6.029,13.3045,4.60106,2470.661,2023-3-02T15:31:30Z
2023-03-02T13:32:01Z,42.805,6.029,13.3043,4.60106,2470.624,2023-3-02T15:34:33Z
2023-03-02T13:35:04Z,42.805,6.029,13.3048,4.60106,2470.661,2023-3-02T15:37:36Z
2023-03-02T13:38:07Z,42.805,6.029,13.3041,4.60106,2470.661,2023-3-02T15:40:39Z
2023-03-02T13:41:10Z,42.805,6.029,13.3047,4.60110,2470.646,2023-3-02T15:43:42Z
2023-03-02T13:44:13Z,42.805,6.029,13.3046,4.60111,2470.646,2023-3-02T15:46:45Z
2023-03-02T13:47:16Z,42.805,6.029,13.3045,4.60107,2470.646,2023-3-02T15:49:49Z
2023-03-02T13:50:19Z,42.805,6.029,13.3046,4.60108,2470.624,2023-3-02T15:52:52Z
2023-03-02T13:53:22Z,42.805,6.029,13.3051,4.60108,2470.684,2023-3-02T15:55:55Z
2023-03-02T13:56:25Z,42.805,6.029,13.3047,4.60110,2470.614,2023-3-02T15:58:58Z
2023-03-02T13:59:28Z,42.805,6.029,13.3050,4.60111,2470.624,2023-3-02T16:02:01Z
2023-03-02T14:02:32Z,42.805,6.029,13.3053,4.60112,2470.624,2023-3-02T16:05:04Z
2023-03-02T14:05:35Z,42.805,6.029,13.3051,4.60113,2470.67,2023-3-02T16:08:07Z
2023-03-02T14:08:38Z,42.805,6.029,13.3049,4.60113,2470.637,2023-3-02T16:11:10Z
2023-03-02T14:11:41Z,42.805,6.029,13.3052,4.60113,2470.646,2023-3-02T16:14:13Z
2023-03-02T14:14:44Z,42.805,6.029,13.3051,4.60114,2470.646,2023-3-02T16:17:16Z
2023-03-02T14:17:47Z,42.805,6.029,13.3050,4.60114,2470.656,2023-3-02T16:20:19Z
2023-03-02T14:20:50Z,42.805,6.029,13.3050,4.60113,2470.646,2023-3-02T16:23:22Z
2023-03-02T14:23:53Z,42.805,6.029,13.3051,4.60114,2470.646,2023-3-02T16:26:26Z
2023-03-02T14:26:56Z,42.805,6.029,13.3053,4.60112,2470.637,2023-3-02T16:29:29Z
2023-03-02T14:29:59Z,42.805,6.029,13.3049,4.60114,2470.67,2023-3-02T16:32:32Z
2023-03-02T14:33:02Z,42.805,6.029,13.3051,4.60113,2470.646,2023-3-02T16:35:35Z
2023-03-02T14:36:05Z,42.805,6.029,13.3058,4.60112,2470.661,2023-3-02T16:38:38Z
2023-03-02T14:39:08Z,42.805,6.029,13.3058,4.60114,2470.661,2023-3-02T16:41:41Z
2023-03-02T14:42:12Z,42.805,6.029,13.3064,4.60145,2470.67,2023-3-02T16:44:44Z
2023-03-02T14:45:15Z,42.805,6.029,13.3066,4.60147,2470.684,2023-3-02T16:47:47Z
2023-03-02T14:48:18Z,42.805,6.029,13.3067,4.60157,2470.646,2023-3-02T16:50:50Z
2023-03-02T14:51:21Z,42.805,6.029,13.3064,4.60152,2470.646,2023-3-02T16:53:53Z
2023-03-02T14:54:24Z,42.805,6.029,13.3060,4.60147,2470.67,2023-3-02T16:56:56Z
2023-03-02T14:57:27Z,42.805,6.029,13.3062,4.60150,2470.661,2023-3-02T16:59:59Z
2023-03-02T15:00:30Z,42.805,6.029,13.3066,4.60148,2470.67,2023-3-02T17:03:03Z
2023-03-02T15:03:33Z,42.805,6.029,13.3064,4.60152,2470.633,2023-3-02T17:06:06Z
2023-03-02T15:06:36Z,42.805,6.029,13.3067,4.60137,2470.646,2023-3-02T17:09:09Z
2023-03-02T15:09:39Z,42.805,6.029,13.3062,4.60140,2470.67,2023-3-02T17:12:12Z